Coffeyville, KS

9:53 AM CDT on March 24, 2017 (GMT -0500)
Coffeyville Municipal

Weather History for KCFV - January, 2014

Change the Weather History Date:

Monday, January 20, 2014

  Actual Average Record
Temperature  
Mean Temperature 42 °F -  
Max Temperature 60 °F 43 °F 68 °F (2005)
Min Temperature 25 °F 22 °F 9 °F (2001)
Degree Days  
Heating Degree Days 22    
Moisture  
Dew Point 24 °F    
Average Humidity 53    
Maximum Humidity 88    
Minimum Humidity 24    
Precipitation  
Precipitation 0.00 in - - ()
Sea Level Pressure  
Sea Level Pressure 30.02 in    
Wind  
Wind Speed 8 mph (North)    
Max Wind Speed 23 mph    
Max Gust Speed 34 mph    
Visibility 10 miles    
Events      
Averages and records for this station are not official NWS values.
T = Trace of Precipitation, MM = Missing Value Source: NWS Daily Summary

Daily Weather History Graph

Daily Weather History Graph

Search for Another Location

Airport or City:

Trip Planner

Search our weather history database for the weather conditions in past years. The results will help you decide how hot, cold, wet, or windy it might be!

Date:

Astronomy

Jan. 20, 2014 Rise Set
Actual Time 7:32 AM CST 5:34 PM CST
Civil Twilight 7:04 AM CST 6:02 PM CST
Nautical Twilight 6:33 AM CST 6:34 PM CST
Astronomical Twilight 6:01 AM CST 7:05 PM CST
Moon 10:02 PM CST (1/20) 9:39 AM CST (1/20)
Length of Visible Light 10h 57m
Length of Day
10h 01m
Waning Gibbous, 82% of the Moon is Illuminated
Jan 20
Waning Gibbous
Jan 23
Last Quarter
Jan 30
New
Feb 6
First Quarter
Feb 14
Full

Hourly Weather History & Observations

Time (CST) Temp. Windchill Dew Point Humidity Pressure Visibility Wind Dir Wind Speed Gust Speed Precip Events Conditions
12:52 AM 30.9 °F 26.2 °F 24.1 °F 76% 29.91 in 10.0 mi ESE 4.6 mph - N/A   Clear
1:52 AM 36.0 °F 31.1 °F 25.0 °F 64% 29.89 in 10.0 mi SE 5.8 mph - N/A   Clear
2:52 AM 34.0 °F 28.8 °F 25.0 °F 70% 29.88 in 10.0 mi SSE 5.8 mph - N/A   Clear
3:52 AM 30.0 °F 26.5 °F 24.1 °F 79% 29.88 in 10.0 mi South 3.5 mph - N/A   Clear
4:52 AM 32.0 °F 26.4 °F 25.0 °F 75% 29.87 in 10.0 mi South 5.8 mph - N/A   Clear
5:52 AM 32.0 °F - 26.1 °F 79% 29.88 in 10.0 mi Calm Calm - N/A   Clear
6:52 AM 26.1 °F 19.4 °F 23.0 °F 88% 29.88 in 10.0 mi SE 5.8 mph - N/A   Clear
7:52 AM 25.0 °F 20.7 °F 21.9 °F 88% 29.92 in 10.0 mi NNE 3.5 mph - N/A   Clear
8:52 AM 34.0 °F - 28.0 °F 79% 29.92 in 10.0 mi Calm Calm - N/A   Clear
9:52 AM 43.0 °F 40.3 °F 28.0 °F 56% 29.95 in 10.0 mi NNE 4.6 mph - N/A   Clear
10:52 AM 48.9 °F - 30.0 °F 48% 29.98 in 10.0 mi North 9.2 mph - N/A   Clear
11:52 AM 54.0 °F - 30.0 °F 40% 29.98 in 10.0 mi NNE 12.7 mph - N/A   Clear
12:52 PM 57.9 °F - 28.9 °F 33% 29.97 in 10.0 mi NNE 12.7 mph - N/A   Clear
1:52 PM 59.0 °F - 28.0 °F 31% 29.99 in 10.0 mi North 20.7 mph 26.5 mph N/A   Clear
2:52 PM 60.1 °F - 23.0 °F 24% 29.99 in 10.0 mi North 17.3 mph - N/A   Clear
3:52 PM 57.9 °F - 21.0 °F 24% 30.04 in 10.0 mi North 23.0 mph 31.1 mph N/A   Clear
4:52 PM 55.0 °F - 24.1 °F 30% 30.07 in 10.0 mi North 16.1 mph 26.5 mph N/A   Clear
5:52 PM 51.1 °F - 23.0 °F 33% 30.13 in 10.0 mi NNW 15.0 mph 20.7 mph N/A   Clear
6:52 PM 46.9 °F - 23.0 °F 39% 30.17 in 10.0 mi NNW 9.2 mph - N/A   Clear
7:52 PM 44.1 °F 38.6 °F 23.0 °F 43% 30.19 in 10.0 mi North 10.4 mph - N/A   Clear
8:52 PM 39.9 °F 35.8 °F 21.9 °F 49% 30.20 in 10.0 mi WNW 5.8 mph - N/A   Clear
9:52 PM 42.1 °F 34.9 °F 21.9 °F 45% 30.24 in 10.0 mi NNW 13.8 mph - N/A   Clear
10:52 PM 37.9 °F 27.9 °F 15.1 °F 39% 30.27 in 10.0 mi NNW 19.6 mph 26.5 mph N/A   Clear
11:52 PM 34.0 °F 21.8 °F 15.1 °F 46% 30.31 in 10.0 mi NNW 23.0 mph 34.5 mph N/A   Clear